Location: Unspecified
(52.4292°N, 19.3359°E)
Time: 00:27:08
(UTC+02:00)

Altair - Pass Details

Date: 24 May 2024
Orbit: 1502 x 1682 km, 47.2° (Epoch: 19 June)

Event Time Altitude Azimuth Distance (km) Brightness Sun altitude
Rises 15:32:19 0° 282° (WNW) 4,912 10.7 44.3°
Reaches altitude 10° 15:35:37 10° 277° (W) 3,935 10.4 43.8°
Maximum altitude 15:45:04 47° 208° (SSW) 2,127 9.6 42.5°
Drops below altitude 10° 15:54:30 10° 140° (SE) 3,918 9.6 41.2°
Sets 15:57:46 0° 134° (SE) 4,889 9.9 40.7°
